Home > Time Zones > World Clock > Weather > Japan > Tokyo > Past weeks

Flag for Japan Weather past 2 weeks in Tokyo, Japan

Now
71 °F

Mild.


Feels Like: 75 °F
Forecast: 63 / 77 °F
Wind: 6 mph from Northwest

Location: Tokyo

Current Time: May 25, 2015 at 8:32:47 AM

Latest Report: May 25, 2015 at 7:00 AM


Visibility: N/A

Pressure: 29.84 "Hg

Humidity: 64%

Dew point: 58 °F

Location of TokyoLocation

Historic Weather in Tokyo — Graph

°F

Tokyo temperature yesterday

Maximum temperature yesterday: 76 °F (at 1:00 PM)
Minimum temperature yesterday: 64 °F (at 11:00 PM)
Average temperature yesterday: 70 °F

Past Weeks' High & Low Weather Summary

 TemperatureHumidityPressure
High82 °F (May 14, 3:00 PM)98% (May 12, 11:00 PM)30.23 "Hg (May 12, 11:00 PM)
Low54 °F (May 11, 5:00 AM)17% (May 11, 11:00 AM)29.44 "Hg (May 13, 12:00 AM)
Average70 °F62%29.80 "Hg
* Reported May 10 7:00 AM — May 25 7:00 AM, Tokyo, Weather by CustomWeather, © 2015

Note: Actual official high and low records may vary slightly from our data, if they occured in-between our weather recording intervals... More about our weather records

Advertising

Tokyo weather history for previous 24 hours

 ConditionsComfort  
Time TempWeatherWind HumidityBarometerVisibility
7:00 AM
Mon, May 25
71 °FMild.6 mph64%29.84 "HgN/A
5:00 AM63 °FMild.1 mph87%29.82 "HgN/A
4:00 AM62 °FCool.3 mph94%29.81 "HgN/A
3:00 AM62 °FOvercast.2 mph92%29.79 "Hg12 mi
2:00 AM63 °FMild.3 mph93%29.78 "HgN/A
1:00 AM63 °FMild.3 mph92%29.78 "HgN/A
12:00 AM64 °FMild.5 mph88%29.78 "HgN/A
11:00 PM
Sun, May 24
64 °FMild.5 mph83%29.79 "HgN/A
10:00 PM65 °FMild.2 mph82%29.78 "HgN/A
9:00 PM65 °FOvercast.3 mph80%29.78 "Hg12 mi
8:00 PM67 °FMild.3 mph77%29.77 "HgN/A
7:00 PM69 °FMild.6 mph70%29.76 "HgN/A
6:00 PM71 °FOvercast.6 mph66%29.75 "Hg12 mi
5:00 PM73 °FMild.7 mph57%29.74 "HgN/A
4:00 PM76 °FMild.8 mph50%29.73 "HgN/A
3:00 PM75 °FOvercast.6 mph44%29.74 "Hg12 mi
2:00 PM75 °FMild.7 mph38%29.75 "HgN/A
1:00 PM76 °FMild.6 mph40%29.77 "HgN/A
12:00 PM74 °FOvercast.7 mph40%29.79 "Hg16 mi
11:00 AM74 °FMild.5 mph46%29.80 "HgN/A
10:00 AM73 °FMild.7 mph52%29.81 "HgN/A
9:00 AM69 °FOvercast.7 mph56%29.83 "Hg12 mi
8:00 AM68 °FMild.8 mph65%29.84 "HgN/A
Weather by CustomWeather, © 2015

See weather overviewHow to use our weather pages